Location: Dennis Manor
(64.8292°N, 147.5397°W)
Time: 09:01:30
(UTC+00:00)

Envisat - Pass Details

Date: 27 October 2020
Orbit: 764 x 766 km, 98.1° (Epoch: 05 December)

Event Time Altitude Azimuth Distance (km) Brightness Sun altitude
Rises 15:14:42 0° 18° (NNE) 3,251 6.5 -13.9°
Reaches altitude 10° 15:17:14 10° 28° (NNE) 2,320 5.8 -13.6°
Maximum altitude 15:21:53 34° 93° (E) 1,254 4.9 -13.1°
Drops below altitude 10° 15:26:30 10° 158° (SSE) 2,306 5.8 -12.6°
Sets 15:29:00 0° 168° (SSE) 3,228 6.5 -12.4°
